Location: Chavannes
(47.1090°N, 0.2226°W)
Time: 15:24:10
(UTC+00:00)

SL-16 R/B - Pass Details

Date: 16 October 2021
Orbit: 842 x 846 km, 71.0° (Epoch: 07 December)

Event Time Altitude Azimuth Distance (km) Brightness Sun altitude
Rises 19:45:27 0° 200° (SSW) 3,386 5.4 -26.8°
Reaches altitude 10° 19:47:53 10° 199° (SSW) 2,456 4.6 -27.2°
Enters shadow 19:50:56 34° 194° (SSW) 1,364 3.2 -27.7°
